Weather in Gremyachevo

Russia / Nizhny Novgorod Oblast'     55°23′26″N   43°02′13″E
temp.,
°C
wind,
m/s
gust,
m/s
humid.,
%
clouds,
%
prec.,
mm/h
press.,
hPa
HPBL,
m
18 may, tue
tue1800:00+16ese387751 0.0 1015124
03:00+15ese397713 0.0 1015161
06:00+17ese387067 0.0 1014172
09:00+24ese485170 0.0 1014471
12:00+27se58385 0.0 10141171
15:00+28ese59355 0.0 10131913
18:00+25ese511535 0.0 1012768
21:00+19ese413705 0.0 1013300
19 may, wed
wed1900:00+18ese416664 0.0 1012355
03:00+18ese415644 0.0 1012364
06:00+18ese516730 0.0 1012453
09:00+24ese512534 0.0 1012631
12:00+27ese610430 0.0 10111154
15:00+28ese611465 0.0 10111962
18:00+25ese612595 0.0 10111192
21:00+21ese6167198 0.1 1011701
20 may, thu
thu2000:00+18e4148215 0.3 1011352
03:00+16e414775 0.3 1011407
06:00+17ese413770 0.1 1010561
09:00+22se58638 0.1 10101004
12:00+21se487561 0.6 1010885
15:00+17s4108711 2.8 1011592
18:00+19sse487690 0.3 1010820
21:00+15sse4118913 0.5 1011376
21 may, fri
fri2100:00+13sse3109379 0.0 1010381
03:00+12sse410978 0.0 1010334
06:00+13s41192100 0.1 1010501
09:00+18s7126455 0.1 10101540
12:00+17ssw8125492 0.3 10111773
15:00+16sw61260100 0.4 10131866
18:00+13wsw6117266 0.3 10141255
21:00+12sw51176100 0.3 10161043
22 may, sat
sat2200:00+10wsw498688 0.0 1018649
03:00+8wsw2897100 0.0 1020263
06:00+10sw2384100 0.0 1021161
09:00+13s3568100 0.0 1023478
12:00+13ssw3474100 0.3 1023501
15:00+11ese2392100 3.4 1022277
18:00+10nne2398100 2.1 1021158
21:00+11e3799100 9.9 1020245